Fulton, NY

2:59 AM EST on February 21, 2017 (GMT -0500)
Oswego County

Weather History for KFZY - March, 2013

Change the Weather History Date:

Friday, March 22, 2013

  Actual Average (KSYR) Record (KSYR)
Temperature  
Mean Temperature 30 °F -  
Max Temperature 33 °F 42 °F 82 °F (1938)
Min Temperature 26 °F 26 °F 5 °F (1988)
Degree Days  
Heating Degree Days 36    
Moisture  
Dew Point 24 °F    
Average Humidity 83    
Maximum Humidity 93    
Minimum Humidity 66    
Precipitation  
Precipitation 0.31 in - - ()
Sea Level Pressure  
Sea Level Pressure 29.75 in    
Wind  
Wind Speed 10 mph (West)    
Max Wind Speed 21 mph    
Max Gust Speed 33 mph    
Visibility 3 miles    
Events Fog , Snow    
Averages and records for this station are not official NWS values.
T = Trace of Precipitation, MM = Missing Value Source: NWS Daily Summary

Daily Weather History Graph

Daily Weather History Graph

Search for Another Location

Airport or City:

Trip Planner

Search our weather history database for the weather conditions in past years. The results will help you decide how hot, cold, wet, or windy it might be!

Date:

Astronomy

Mar. 22, 2013 Rise Set
Actual Time 7:04 AM EDT 7:20 PM EDT
Civil Twilight 6:36 AM EDT 7:49 PM EDT
Nautical Twilight 6:02 AM EDT 8:22 PM EDT
Astronomical Twilight 5:28 AM EDT 8:57 PM EDT
Moon 2:38 PM EDT (3/22) 4:11 AM EDT (3/22)
Length of Visible Light 13h 12m
Length of Day
12h 15m
Waxing Gibbous, 77% of the Moon is Illuminated
Mar 22
Waxing Gibbous
Mar 27
Full
Apr 3
Last Quarter
Apr 10
New
Apr 18
First Quarter

Hourly Weather History & Observations

Time (EDT) Temp. Windchill Dew Point Humidity Pressure Visibility Wind Dir Wind Speed Gust Speed Precip Events Conditions
12:04 AM 26.6 °F 16.2 °F 23.0 °F 86% 29.68 in 2.0 mi SW 11.5 mph - 0.00 in Snow Light Snow
12:21 AM 26.6 °F 18.2 °F 24.8 °F 93% 29.68 in 1.0 mi SW 8.1 mph - 0.00 in Snow Light Snow
12:23 AM 26.6 °F 18.2 °F 24.8 °F 93% 29.68 in 0.8 mi SW 8.1 mph - 0.00 in Snow Light Snow
12:40 AM 26.6 °F 16.8 °F 24.8 °F 93% 29.68 in 0.8 mi WSW 10.4 mph - 0.02 in Snow Light Snow
12:47 AM 26.6 °F 18.2 °F 24.8 °F 93% 29.68 in 1.2 mi WSW 8.1 mph - 0.02 in Snow Light Snow
12:54 AM 27.0 °F 19.5 °F 24.1 °F 89% 29.70 in 2.5 mi WSW 6.9 mph - 0.02 in Snow Light Snow
12:56 AM 26.6 °F 19.1 °F 24.8 °F 93% 29.68 in 3.0 mi WSW 6.9 mph - 0.00 in Snow Light Snow
1:13 AM 26.6 °F 18.2 °F 24.8 °F 93% 29.68 in 10.0 mi West 8.1 mph - 0.00 in   Overcast
1:54 AM 28.0 °F 20.8 °F 21.0 °F 75% 29.70 in 10.0 mi West 6.9 mph - 0.00 in   Overcast
2:54 AM 28.0 °F 20.0 °F 23.0 °F 81% 29.70 in 3.0 mi WNW 8.1 mph - 0.00 in Snow Light Snow
3:01 AM 28.4 °F 20.4 °F 23.0 °F 80% 29.68 in 3.0 mi West 8.1 mph - 0.00 in Snow Light Snow
3:28 AM 28.4 °F 20.4 °F 24.8 °F 86% 29.68 in 2.5 mi West 8.1 mph - 0.00 in Snow Light Snow
3:34 AM 28.4 °F 20.4 °F 24.8 °F 86% 29.68 in 3.0 mi West 8.1 mph - 0.00 in Snow Light Snow
3:37 AM 28.4 °F 20.4 °F 24.8 °F 86% 29.68 in 2.5 mi West 8.1 mph - 0.00 in Snow Light Snow
3:46 AM 28.4 °F 20.4 °F 24.8 °F 86% 29.68 in 1.8 mi WNW 8.1 mph - 0.00 in Snow Light Snow
3:54 AM 28.0 °F 18.6 °F 24.1 °F 85% 29.70 in 2.5 mi WNW 10.4 mph - 0.00 in Snow Light Snow
4:01 AM 28.4 °F 20.4 °F 24.8 °F 86% 29.68 in 5.0 mi WNW 8.1 mph - 0.00 in Snow Light Snow
4:07 AM 28.4 °F 19.7 °F 24.8 °F 86% 29.68 in 3.0 mi WNW 9.2 mph - 0.00 in Snow Light Snow
4:13 AM 28.4 °F 19.7 °F 24.8 °F 86% 29.68 in 2.5 mi WNW 9.2 mph - 0.00 in Snow Light Snow
4:23 AM 28.4 °F 22.2 °F 24.8 °F 86% 29.68 in 2.0 mi West 5.8 mph - 0.00 in Snow Light Snow
4:54 AM 28.0 °F 20.8 °F 25.0 °F 88% 29.70 in 2.0 mi WNW 6.9 mph - 0.00 in Snow Light Snow
5:03 AM 28.4 °F 19.7 °F 24.8 °F 86% 29.68 in 1.2 mi NW 9.2 mph - 0.01 in Snow Light Snow
5:22 AM 28.4 °F 20.4 °F 24.8 °F 86% 29.68 in 0.8 mi WNW 8.1 mph - 0.02 in Snow Light Snow
5:47 AM 28.4 °F 19.1 °F 24.8 °F 86% 29.69 in 0.5 mi WSW 10.4 mph - 0.04 in Fog , Snow Light Snow
5:54 AM 27.0 °F 18.7 °F 24.1 °F 89% 29.70 in 0.8 mi WSW 8.1 mph - 0.05 in Snow Light Snow
6:03 AM 26.6 °F 16.8 °F 24.8 °F 93% 29.69 in 1.2 mi WSW 10.4 mph - 0.00 in Snow Light Snow
6:29 AM 26.6 °F 16.2 °F 23.0 °F 86% 29.69 in 0.8 mi West 11.5 mph - 0.01 in Snow Light Snow
6:45 AM 26.6 °F 17.5 °F 23.0 °F 86% 29.69 in 0.5 mi WSW 9.2 mph - 0.02 in Fog , Snow Snow
6:54 AM 26.1 °F 17.6 °F 23.0 °F 88% 29.71 in 0.8 mi WSW 8.1 mph - 0.02 in Snow Light Snow
7:54 AM 26.1 °F 16.2 °F 23.0 °F 88% 29.73 in 0.5 mi WSW 10.4 mph - 0.04 in Fog , Snow Light Snow
8:01 AM 26.6 °F 16.2 °F 23.0 °F 86% 29.71 in 1.2 mi WSW 11.5 mph - 0.00 in Snow Light Snow
8:10 AM 26.6 °F 16.8 °F 23.0 °F 86% 29.72 in 1.2 mi WSW 10.4 mph - 0.00 in Snow Light Snow
8:25 AM 26.6 °F 18.2 °F 23.0 °F 86% 29.72 in 0.8 mi West 8.1 mph - 0.00 in Snow Light Snow
8:54 AM 27.0 °F 18.0 °F 23.0 °F 85% 29.74 in 0.5 mi West 9.2 mph - 0.02 in Fog , Snow Snow
9:07 AM 26.6 °F 19.1 °F 24.8 °F 93% 29.72 in 1.0 mi WSW 6.9 mph - 0.00 in Snow Light Snow
9:13 AM 26.6 °F 19.1 °F 24.8 °F 93% 29.72 in 2.0 mi West 6.9 mph - 0.00 in Snow Light Snow
9:19 AM 28.4 °F 18.5 °F 24.8 °F 86% 29.72 in 1.8 mi West 11.5 mph - 0.00 in Snow Light Snow
9:26 AM 28.4 °F 19.1 °F 24.8 °F 86% 29.72 in 0.8 mi West 10.4 mph - 0.00 in Snow Light Snow
9:42 AM 28.4 °F 20.4 °F 24.8 °F 86% 29.72 in 1.2 mi West 8.1 mph - 0.00 in Snow Light Snow
9:45 AM 28.4 °F 20.4 °F 24.8 °F 86% 29.73 in 2.0 mi West 8.1 mph - 0.00 in Snow Light Snow
9:50 AM 28.4 °F 20.4 °F 24.8 °F 86% 29.73 in 3.0 mi WNW 8.1 mph - 0.01 in Snow Light Snow
9:54 AM 28.9 °F 21.1 °F 24.1 °F 82% 29.75 in 3.0 mi WNW 8.1 mph - 0.01 in Snow Light Snow
9:56 AM 28.4 °F 19.7 °F 24.8 °F 86% 29.73 in 2.5 mi WNW 9.2 mph - 0.00 in Snow Light Snow
10:00 AM 28.4 °F 19.7 °F 24.8 °F 86% 29.73 in 1.8 mi WNW 9.2 mph - 0.00 in Snow Light Snow
10:04 AM 28.4 °F 18.0 °F 24.8 °F 86% 29.73 in 0.8 mi WNW 12.7 mph - 0.00 in Snow Light Snow
10:24 AM 28.4 °F 19.7 °F 24.8 °F 86% 29.74 in 1.2 mi WNW 9.2 mph - 0.00 in Snow Light Snow
10:39 AM 28.4 °F 18.5 °F 24.8 °F 86% 29.74 in 2.5 mi WNW 11.5 mph - 0.00 in Snow Light Snow
10:41 AM 28.4 °F 19.1 °F 24.8 °F 86% 29.74 in 4.0 mi WNW 10.4 mph - 0.00 in Snow Light Snow
10:47 AM 28.4 °F 19.1 °F 24.8 °F 86% 29.74 in 5.0 mi West 10.4 mph 18.4 mph 0.00 in Snow Light Snow
10:54 AM 30.0 °F 18.7 °F 21.9 °F 72% 29.76 in 8.0 mi WNW 16.1 mph 20.7 mph 0.00 in Snow Light Snow
11:46 AM 28.4 °F 15.8 °F 19.4 °F 69% 29.75 in 10.0 mi West 18.4 mph 25.3 mph 0.00 in   Overcast
11:54 AM 28.9 °F 17.3 °F 19.9 °F 69% 29.77 in 10.0 mi WNW 16.1 mph 27.6 mph 0.00 in   Overcast
12:19 PM 26.6 °F 13.1 °F 19.4 °F 74% 29.76 in 2.5 mi WNW 19.6 mph 26.5 mph 0.00 in Snow Light Snow
12:37 PM 26.6 °F 13.4 °F 19.4 °F 74% 29.77 in 1.2 mi WNW 18.4 mph 26.5 mph 0.00 in Snow Light Snow
12:48 PM 28.4 °F 16.6 °F 19.4 °F 69% 29.77 in 3.0 mi WNW 16.1 mph 23.0 mph 0.00 in Snow Light Snow
12:54 PM 28.0 °F 15.7 °F 19.0 °F 69% 29.80 in 7.0 mi WNW 17.3 mph 24.2 mph 0.00 in Snow Light Snow
1:54 PM 28.0 °F 16.5 °F 18.0 °F 66% 29.80 in 10.0 mi West 15.0 mph 21.9 mph 0.00 in   Overcast
2:54 PM 28.9 °F 15.8 °F 19.0 °F 67% 29.80 in 10.0 mi WNW 20.7 mph 33.4 mph 0.00 in   Overcast
3:54 PM 30.0 °F 17.9 °F 19.9 °F 66% 29.81 in 7.0 mi West 18.4 mph 27.6 mph 0.00 in Snow Light Snow
4:54 PM 30.9 °F 21.7 °F 21.9 °F 69% 29.81 in 10.0 mi WNW 11.5 mph 25.3 mph 0.00 in   Overcast
5:54 PM 32.0 °F 21.6 °F 21.9 °F 66% 29.82 in 10.0 mi WNW 15.0 mph 23.0 mph 0.00 in   Overcast
6:41 PM 32.0 °F 20.8 °F 23.0 °F 69% 29.81 in 10.0 mi WNW 17.3 mph 26.5 mph N/A   Overcast
6:54 PM 32.0 °F 20.5 °F 23.0 °F 69% 29.83 in 9.0 mi WNW 18.4 mph 24.2 mph N/A   Overcast
7:33 PM 33.8 °F 24.8 °F 24.8 °F 70% 29.82 in 10.0 mi WNW 12.7 mph - 0.00 in   Overcast
7:54 PM 32.0 °F 24.2 °F 26.1 °F 79% 29.85 in 4.0 mi WSW 9.2 mph - 0.01 in Snow Light Snow
7:59 PM 30.2 °F 21.9 °F 26.6 °F 86% 29.83 in 2.5 mi WSW 9.2 mph - 0.01 in Snow Light Snow
8:22 PM 30.2 °F 21.3 °F 26.6 °F 86% 29.84 in 3.0 mi West 10.4 mph - 0.03 in Snow Light Snow
8:30 PM 30.2 °F 21.3 °F 26.6 °F 86% 29.84 in 4.0 mi WSW 10.4 mph - 0.03 in Snow Light Snow
8:54 PM 30.9 °F 24.3 °F 26.1 °F 82% 29.86 in 5.0 mi West 6.9 mph - 0.05 in Snow Light Snow
9:44 PM 30.2 °F 20.8 °F 26.6 °F 86% 29.85 in 2.0 mi West 11.5 mph - 0.05 in Snow Light Snow
9:54 PM 30.9 °F 20.2 °F 27.0 °F 85% 29.87 in 1.2 mi WNW 15.0 mph 19.6 mph 0.06 in Snow Light Snow
10:01 PM 32.0 °F 22.1 °F 26.6 °F 80% 29.85 in 1.8 mi West 13.8 mph 19.6 mph 0.01 in Snow Light Snow
10:08 PM 32.0 °F 22.1 °F 26.6 °F 80% 29.85 in 2.0 mi West 13.8 mph - 0.01 in Snow Light Snow
10:14 PM 30.2 °F 19.3 °F 26.6 °F 86% 29.85 in 1.0 mi West 15.0 mph - 0.02 in Snow Light Snow
10:23 PM 30.2 °F 20.2 °F 28.4 °F 93% 29.85 in 0.8 mi West 12.7 mph - 0.03 in Snow Light Snow
10:25 PM 30.2 °F 19.8 °F 28.4 °F 93% 29.85 in 1.0 mi West 13.8 mph - 0.03 in Snow Light Snow
10:34 PM 30.2 °F 22.6 °F 28.4 °F 93% 29.85 in 1.8 mi West 8.1 mph - 0.03 in Snow Light Snow
10:39 PM 30.2 °F 21.9 °F 28.4 °F 93% 29.85 in 3.0 mi West 9.2 mph - 0.03 in Snow Light Snow
10:54 PM 32.0 °F 21.6 °F 26.1 °F 79% 29.87 in 4.0 mi West 15.0 mph - 0.03 in Snow Light Snow
11:20 PM 30.2 °F 20.8 °F 26.6 °F 86% 29.85 in 2.0 mi WNW 11.5 mph - 0.00 in Snow Light Snow
11:42 PM 30.2 °F 19.8 °F 26.6 °F 86% 29.86 in 1.2 mi WNW 13.8 mph 24.2 mph 0.00 in Snow Light Snow
11:54 PM 30.0 °F 20.5 °F 26.1 °F 85% 29.88 in 1.8 mi WNW 11.5 mph - 0.00 in Snow Light Snow